Time,TemperatureF,DewpointF,PressureIn,WindDirection,WindDirectionDegrees,WindSpeedMPH,WindSpeedGustMPH,Humidity,HourlyPrecipIn,Conditions,Clouds,dailyrainin,SoftwareType,DateUTC
2013-05-26 00:02:00,59.4,40.3,29.66,East,90,6.0,8.0,49,0.00,,,0.00,meteohub,2013-05-26 05:02:00,
2013-05-26 00:07:00,59.2,40.6,29.66,ENE,68,3.0,7.0,50,0.00,,,0.00,meteohub,2013-05-26 05:07:00,
2013-05-26 00:12:00,59.0,40.5,29.66,NE,45,3.0,7.0,50,0.00,,,0.00,meteohub,2013-05-26 05:12:00,
2013-05-26 00:17:00,58.8,40.8,29.69,ENE,68,10.0,10.0,51,0.00,,,0.00,meteohub,2013-05-26 05:17:00,
2013-05-26 00:22:00,58.8,40.8,29.69,East,90,4.0,10.0,51,0.00,,,0.00,meteohub,2013-05-26 05:22:00,
2013-05-26 00:27:00,58.8,40.3,29.69,ENE,68,3.0,10.0,50,0.00,,,0.00,meteohub,2013-05-26 05:27:00,
2013-05-26 00:32:00,58.6,40.6,29.69,NNE,22,2.0,10.0,51,0.00,,,0.00,meteohub,2013-05-26 05:32:00,
2013-05-26 00:37:00,58.5,41.4,29.66,East,90,4.0,7.0,53,0.00,,,0.00,meteohub,2013-05-26 05:37:00,
2013-05-26 00:42:00,58.3,41.2,29.66,ENE,68,2.0,6.0,53,0.00,,,0.00,meteohub,2013-05-26 05:42:00,
2013-05-26 00:47:00,58.3,41.2,29.66,East,90,3.0,6.0,53,0.00,,,0.00,meteohub,2013-05-26 05:47:00,
2013-05-26 00:52:00,58.1,41.5,29.66,ENE,68,4.0,6.0,54,0.00,,,0.00,meteohub,2013-05-26 05:52:00,
2013-05-26 00:57:00,58.1,41.5,29.66,ESE,112,4.0,7.0,54,0.00,,,0.00,meteohub,2013-05-26 05:57:00,
2013-05-26 01:02:00,57.9,41.9,29.66,East,90,5.0,7.0,55,0.00,,,0.00,meteohub,2013-05-26 06:02:00,
2013-05-26 01:07:00,57.9,41.9,29.66,East,90,3.0,7.0,55,0.00,,,0.00,meteohub,2013-05-26 06:07:00,
2013-05-26 01:12:00,57.9,41.9,29.66,ENE,68,6.0,7.0,55,0.00,,,0.00,meteohub,2013-05-26 06:12:00,
2013-05-26 01:17:00,57.7,41.7,29.66,ENE,68,4.0,7.0,55,0.00,,,0.00,meteohub,2013-05-26 06:17:00,
2013-05-26 01:22:00,57.7,42.3,29.63,East,90,4.0,8.0,56,0.00,,,0.00,meteohub,2013-05-26 06:22:00,
2013-05-26 01:27:00,57.6,41.5,29.63,ENE,68,2.0,8.0,55,0.00,,,0.00,meteohub,2013-05-26 06:27:00,
2013-05-26 01:32:00,57.6,42.1,29.63,NE,45,4.0,8.0,56,0.00,,,0.00,meteohub,2013-05-26 06:32:00,
2013-05-26 01:37:00,57.6,42.4,29.63,East,90,2.0,8.0,57,0.00,,,0.00,meteohub,2013-05-26 06:37:00,
2013-05-26 01:42:00,57.6,42.1,29.63,ENE,68,6.0,6.0,56,0.00,,,0.00,meteohub,2013-05-26 06:42:00,
2013-05-26 01:47:00,57.4,42.3,29.63,SE,135,2.0,6.0,57,0.00,,,0.00,meteohub,2013-05-26 06:47:00,
2013-05-26 01:52:00,57.4,42.3,29.63,ENE,68,4.0,6.0,57,0.00,,,0.00,meteohub,2013-05-26 06:52:00,
2013-05-26 01:57:00,57.4,42.8,29.63,East,90,3.0,6.0,58,0.00,,,0.00,meteohub,2013-05-26 06:57:00,
2013-05-26 02:02:00,57.4,42.8,29.66,East,90,3.0,6.0,58,0.00,,,0.00,meteohub,2013-05-26 07:02:00,
2013-05-26 02:07:00,57.4,42.8,29.66,ENE,68,3.0,6.0,58,0.00,,,0.00,meteohub,2013-05-26 07:07:00,
2013-05-26 02:12:00,57.4,42.8,29.66,ESE,112,3.0,6.0,58,0.00,,,0.00,meteohub,2013-05-26 07:12:00,
2013-05-26 02:17:00,57.4,43.2,29.63,ENE,68,2.0,6.0,59,0.00,,,0.00,meteohub,2013-05-26 07:17:00,
2013-05-26 02:22:00,57.4,43.2,29.63,ESE,112,2.0,6.0,59,0.00,,,0.00,meteohub,2013-05-26 07:22:00,
2013-05-26 02:27:00,57.2,43.5,29.63,NE,45,3.0,5.0,60,0.00,,,0.00,meteohub,2013-05-26 07:27:00,
2013-05-26 02:32:00,57.2,43.5,29.63,East,90,6.0,6.0,60,0.00,,,0.00,meteohub,2013-05-26 07:32:00,
2013-05-26 02:37:00,57.2,43.9,29.63,ENE,68,4.0,9.0,61,0.00,,,0.00,meteohub,2013-05-26 07:37:00,
2013-05-26 02:42:00,57.2,43.9,29.63,ENE,68,2.0,9.0,61,0.00,,,0.00,meteohub,2013-05-26 07:42:00,
2013-05-26 02:47:00,57.2,43.9,29.63,SSW,202,2.0,9.0,61,0.00,,,0.00,meteohub,2013-05-26 07:47:00,
2013-05-26 02:52:00,57.2,43.9,29.63,NNE,22,3.0,5.0,61,0.00,,,0.00,meteohub,2013-05-26 07:52:00,
2013-05-26 02:57:00,57.2,43.9,29.63,NNE,22,4.0,4.0,61,0.00,,,0.00,meteohub,2013-05-26 07:57:00,
2013-05-26 03:02:00,57.2,43.9,29.63,East,90,3.0,9.0,61,0.00,,,0.00,meteohub,2013-05-26 08:02:00,
2013-05-26 03:07:00,57.2,43.9,29.63,ENE,68,6.0,9.0,61,0.00,,,0.00,meteohub,2013-05-26 08:07:00,
2013-05-26 03:12:00,57.0,43.7,29.63,NE,45,4.0,6.0,61,0.00,,,0.00,meteohub,2013-05-26 08:12:00,
2013-05-26 03:17:00,57.0,43.3,29.60,East,90,3.0,9.0,60,0.00,,,0.00,meteohub,2013-05-26 08:17:00,
2013-05-26 03:22:00,57.0,43.3,29.60,East,90,6.0,9.0,60,0.00,,,0.00,meteohub,2013-05-26 08:22:00,
2013-05-26 03:27:00,57.0,43.3,29.60,ENE,68,9.0,9.0,60,0.00,,,0.00,meteohub,2013-05-26 08:27:00,
2013-05-26 03:32:00,56.8,43.2,29.60,ENE,68,4.0,9.0,60,0.00,,,0.00,meteohub,2013-05-26 08:32:00,
2013-05-26 03:37:00,56.8,43.2,29.63,SSE,158,2.0,9.0,60,0.00,,,0.00,meteohub,2013-05-26 08:37:00,
2013-05-26 03:42:00,56.8,43.2,29.63,ESE,112,3.0,9.0,60,0.00,,,0.00,meteohub,2013-05-26 08:42:00,
2013-05-26 03:47:00,56.8,43.5,29.63,ENE,68,3.0,5.0,61,0.00,,,0.00,meteohub,2013-05-26 08:47:00,
2013-05-26 03:52:00,56.8,43.2,29.63,East,90,3.0,5.0,60,0.00,,,0.00,meteohub,2013-05-26 08:52:00,
2013-05-26 03:57:00,56.8,43.5,29.63,ENE,68,5.0,6.0,61,0.00,,,0.00,meteohub,2013-05-26 08:57:00,
2013-05-26 04:02:00,56.7,43.3,29.63,ESE,112,2.0,6.0,61,0.00,,,0.00,meteohub,2013-05-26 09:02:00,
2013-05-26 04:07:00,56.7,43.3,29.63,SE,135,2.0,7.0,61,0.00,,,0.00,meteohub,2013-05-26 09:07:00,
2013-05-26 04:12:00,56.7,43.3,29.63,East,90,2.0,7.0,61,0.00,,,0.00,meteohub,2013-05-26 09:12:00,
2013-05-26 04:17:00,56.7,43.3,29.63,NE,45,3.0,7.0,61,0.00,,,0.00,meteohub,2013-05-26 09:17:00,
2013-05-26 04:22:00,56.5,43.7,29.63,ESE,112,2.0,7.0,62,0.00,,,0.00,meteohub,2013-05-26 09:22:00,
2013-05-26 04:27:00,56.5,43.7,29.63,SE,135,2.0,7.0,62,0.00,,,0.00,meteohub,2013-05-26 09:27:00,
2013-05-26 04:32:00,56.3,43.5,29.63,SSW,202,2.0,6.0,62,0.00,,,0.00,meteohub,2013-05-26 09:32:00,
2013-05-26 04:37:00,56.3,43.5,29.63,ESE,112,2.0,6.0,62,0.00,,,0.00,meteohub,2013-05-26 09:37:00,
2013-05-26 04:42:00,56.3,43.9,29.63,ENE,68,3.0,3.0,63,0.00,,,0.00,meteohub,2013-05-26 09:42:00,
2013-05-26 04:47:00,56.3,43.9,29.63,East,90,2.0,8.0,63,0.00,,,0.00,meteohub,2013-05-26 09:47:00,
2013-05-26 04:52:00,56.1,43.7,29.63,ESE,112,1.0,8.0,63,0.00,,,0.00,meteohub,2013-05-26 09:52:00,
2013-05-26 04:57:00,56.1,43.7,29.63,East,90,1.0,8.0,63,0.00,,,0.00,meteohub,2013-05-26 09:57:00,
2013-05-26 05:02:00,56.1,43.7,29.60,East,90,2.0,4.0,63,0.00,,,0.00,meteohub,2013-05-26 10:02:00,
2013-05-26 05:07:00,55.9,43.9,29.60,NW,315,1.0,3.0,64,0.00,,,0.00,meteohub,2013-05-26 10:07:00,
2013-05-26 05:12:00,55.9,43.9,29.60,ENE,68,1.0,3.0,64,0.00,,,0.00,meteohub,2013-05-26 10:12:00,
2013-05-26 05:17:00,55.9,43.9,29.63,East,90,2.0,3.0,64,0.00,,,0.00,meteohub,2013-05-26 10:17:00,
2013-05-26 05:22:00,55.8,43.7,29.63,SSW,202,0.0,3.0,64,0.00,,,0.00,meteohub,2013-05-26 10:22:00,
2013-05-26 05:27:00,55.9,44.4,29.63,East,90,2.0,3.0,65,0.00,,,0.00,meteohub,2013-05-26 10:27:00,
2013-05-26 05:32:00,55.9,44.8,29.63,East,90,2.0,3.0,66,0.00,,,0.00,meteohub,2013-05-26 10:32:00,
2013-05-26 05:37:00,56.1,44.6,29.63,ENE,68,4.0,4.0,65,0.00,,,0.00,meteohub,2013-05-26 10:37:00,
2013-05-26 05:42:00,56.3,45.1,29.63,SE,135,0.0,4.0,66,0.00,,,0.00,meteohub,2013-05-26 10:42:00,
2013-05-26 05:47:00,56.3,44.8,29.60,ENE,68,0.0,4.0,65,0.00,,,0.00,meteohub,2013-05-26 10:47:00,
2013-05-26 05:52:00,56.3,45.1,29.60,ESE,112,0.0,4.0,66,0.00,,,0.00,meteohub,2013-05-26 10:52:00,
2013-05-26 05:57:00,56.1,44.6,29.60,East,90,2.0,3.0,65,0.00,,,0.00,meteohub,2013-05-26 10:57:00,
2013-05-26 06:02:00,56.3,44.8,29.60,ESE,112,1.0,3.0,65,0.00,,,0.00,meteohub,2013-05-26 11:02:00,
2013-05-26 06:07:00,56.3,44.8,29.63,East,90,3.0,6.0,65,0.00,,,0.00,meteohub,2013-05-26 11:07:00,
2013-05-26 06:12:00,56.3,44.8,29.63,SSE,158,2.0,6.0,65,0.00,,,0.00,meteohub,2013-05-26 11:12:00,
2013-05-26 06:17:00,56.5,45.3,29.63,ENE,68,2.0,3.0,66,0.00,,,0.00,meteohub,2013-05-26 11:17:00,
2013-05-26 06:22:00,56.5,45.0,29.63,ESE,112,1.0,3.0,65,0.00,,,0.00,meteohub,2013-05-26 11:22:00,
2013-05-26 06:27:00,56.7,45.5,29.63,ENE,68,1.0,2.0,66,0.00,,,0.00,meteohub,2013-05-26 11:27:00,
2013-05-26 06:32:00,56.8,45.1,29.63,ENE,68,2.0,3.0,65,0.00,,,0.00,meteohub,2013-05-26 11:32:00,
2013-05-26 06:37:00,57.0,45.3,29.63,ENE,68,1.0,3.0,65,0.00,,,0.00,meteohub,2013-05-26 11:37:00,
2013-05-26 06:42:00,57.6,45.9,29.63,SSE,158,2.0,4.0,65,0.00,,,0.00,meteohub,2013-05-26 11:42:00,
2013-05-26 06:47:00,58.1,46.0,29.60,ENE,68,7.0,7.0,64,0.00,,,0.00,meteohub,2013-05-26 11:47:00,
2013-05-26 06:52:00,59.4,46.8,29.60,ENE,68,1.0,7.0,63,0.00,,,0.00,meteohub,2013-05-26 11:52:00,
2013-05-26 06:57:00,60.3,47.1,29.60,East,90,2.0,7.0,62,0.00,,,0.00,meteohub,2013-05-26 11:57:00,
2013-05-26 07:02:00,60.1,46.2,29.60,East,90,6.0,7.0,60,0.00,,,0.00,meteohub,2013-05-26 12:02:00,
2013-05-26 07:07:00,59.9,45.5,29.60,ESE,112,3.0,6.0,59,0.00,,,0.00,meteohub,2013-05-26 12:07:00,
2013-05-26 07:12:00,60.1,45.3,29.60,SE,135,4.0,6.0,58,0.00,,,0.00,meteohub,2013-05-26 12:12:00,
2013-05-26 07:17:00,59.9,45.1,29.63,East,90,2.0,6.0,58,0.00,,,0.00,meteohub,2013-05-26 12:17:00,
2013-05-26 07:22:00,59.7,45.0,29.63,North,0,4.0,5.0,58,0.00,,,0.00,meteohub,2013-05-26 12:22:00,
2013-05-26 07:27:00,59.7,45.0,29.63,ENE,68,2.0,8.0,58,0.00,,,0.00,meteohub,2013-05-26 12:27:00,
2013-05-26 07:32:00,59.5,45.1,29.63,East,90,5.0,8.0,59,0.00,,,0.00,meteohub,2013-05-26 12:32:00,
2013-05-26 07:37:00,59.5,44.8,29.63,ENE,68,3.0,6.0,58,0.00,,,0.00,meteohub,2013-05-26 12:37:00,
2013-05-26 07:42:00,59.5,45.1,29.63,ENE,68,3.0,6.0,59,0.00,,,0.00,meteohub,2013-05-26 12:42:00,
2013-05-26 07:47:00,59.5,45.1,29.66,East,90,3.0,6.0,59,0.00,,,0.00,meteohub,2013-05-26 12:47:00,
2013-05-26 07:52:00,59.7,45.3,29.66,NE,45,1.0,6.0,59,0.00,,,0.00,meteohub,2013-05-26 12:52:00,
2013-05-26 07:57:00,59.9,46.0,29.66,ENE,68,2.0,6.0,60,0.00,,,0.00,meteohub,2013-05-26 12:57:00,
2013-05-26 08:02:00,60.1,45.7,29.66,East,90,8.0,8.0,59,0.00,,,0.00,meteohub,2013-05-26 13:02:00,
2013-05-26 08:07:00,60.6,46.8,29.63,East,90,1.0,8.0,60,0.00,,,0.00,meteohub,2013-05-26 13:07:00,
2013-05-26 08:12:00,61.7,47.7,29.63,West,270,2.0,8.0,60,0.00,,,0.00,meteohub,2013-05-26 13:12:00,
2013-05-26 08:17:00,62.1,47.7,29.63,West,270,2.0,8.0,59,0.00,,,0.00,meteohub,2013-05-26 13:17:00,
2013-05-26 08:22:00,62.1,46.6,29.63,NE,45,0.0,6.0,57,0.00,,,0.00,meteohub,2013-05-26 13:22:00,
2013-05-26 08:27:00,62.4,46.9,29.63,SW,225,2.0,4.0,57,0.00,,,0.00,meteohub,2013-05-26 13:27:00,
2013-05-26 08:32:00,62.6,46.8,29.66,WSW,248,1.0,6.0,56,0.00,,,0.00,meteohub,2013-05-26 13:32:00,
2013-05-26 08:37:00,63.1,47.1,29.66,West,270,2.0,6.0,56,0.00,,,0.00,meteohub,2013-05-26 13:37:00,
2013-05-26 08:42:00,63.3,46.9,29.66,ESE,112,4.0,6.0,55,0.00,,,0.00,meteohub,2013-05-26 13:42:00,
2013-05-26 08:47:00,63.3,46.4,29.66,East,90,2.0,6.0,54,0.00,,,0.00,meteohub,2013-05-26 13:47:00,
2013-05-26 08:52:00,63.1,46.8,29.66,East,90,3.0,7.0,55,0.00,,,0.00,meteohub,2013-05-26 13:52:00,
2013-05-26 08:57:00,63.3,46.9,29.66,SE,135,2.0,7.0,55,0.00,,,0.00,meteohub,2013-05-26 13:57:00,
2013-05-26 09:02:00,63.9,47.5,29.66,East,90,4.0,7.0,55,0.00,,,0.00,meteohub,2013-05-26 14:02:00,
2013-05-26 09:07:00,64.4,47.5,29.66,ESE,112,3.0,6.0,54,0.00,,,0.00,meteohub,2013-05-26 14:07:00,
2013-05-26 09:12:00,65.1,47.7,29.66,NE,45,4.0,5.0,53,0.00,,,0.00,meteohub,2013-05-26 14:12:00,
2013-05-26 09:17:00,65.5,47.5,29.66,NE,45,3.0,9.0,52,0.00,,,0.00,meteohub,2013-05-26 14:17:00,
2013-05-26 09:22:00,65.8,47.3,29.66,ENE,68,6.0,9.0,51,0.00,,,0.00,meteohub,2013-05-26 14:22:00,
2013-05-26 09:27:00,65.8,47.7,29.66,East,90,3.0,9.0,52,0.00,,,0.00,meteohub,2013-05-26 14:27:00,
2013-05-26 09:32:00,66.0,47.5,29.66,WSW,248,2.0,8.0,51,0.00,,,0.00,meteohub,2013-05-26 14:32:00,
2013-05-26 09:37:00,66.6,47.3,29.63,East,90,4.0,8.0,50,0.00,,,0.00,meteohub,2013-05-26 14:37:00,
2013-05-26 09:42:00,67.3,48.6,29.63,SE,135,2.0,8.0,51,0.00,,,0.00,meteohub,2013-05-26 14:42:00,
2013-05-26 09:47:00,67.6,48.9,29.63,SSE,158,2.0,6.0,51,0.00,,,0.00,meteohub,2013-05-26 14:47:00,
2013-05-26 09:52:00,68.0,48.7,29.63,East,90,2.0,7.0,50,0.00,,,0.00,meteohub,2013-05-26 14:52:00,
2013-05-26 09:57:00,68.2,48.4,29.63,East,90,2.0,7.0,49,0.00,,,0.00,meteohub,2013-05-26 14:57:00,
2013-05-26 10:02:00,68.4,48.6,29.63,NE,45,2.0,7.0,49,0.00,,,0.00,meteohub,2013-05-26 15:02:00,
2013-05-26 10:07:00,68.7,48.2,29.63,ENE,68,3.0,6.0,48,0.00,,,0.00,meteohub,2013-05-26 15:07:00,
2013-05-26 10:12:00,69.8,49.8,29.63,East,90,9.0,9.0,49,0.00,,,0.00,meteohub,2013-05-26 15:12:00,
2013-05-26 10:17:00,69.8,48.7,29.63,East,90,6.0,9.0,47,0.00,,,0.00,meteohub,2013-05-26 15:17:00,
2013-05-26 10:22:00,69.1,48.0,29.63,ENE,68,7.0,9.0,47,0.00,,,0.00,meteohub,2013-05-26 15:22:00,
2013-05-26 10:27:00,69.3,48.7,29.63,ESE,112,5.0,9.0,48,0.00,,,0.00,meteohub,2013-05-26 15:27:00,
2013-05-26 10:32:00,69.8,49.3,29.63,ENE,68,3.0,10.0,48,0.00,,,0.00,meteohub,2013-05-26 15:32:00,
2013-05-26 10:37:00,69.6,48.6,29.63,ENE,68,3.0,10.0,47,0.00,,,0.00,meteohub,2013-05-26 15:37:00,
2013-05-26 10:42:00,70.5,49.3,29.63,East,90,10.0,10.0,47,0.00,,,0.00,meteohub,2013-05-26 15:42:00,
2013-05-26 10:47:00,71.1,49.8,29.63,ENE,68,2.0,10.0,47,0.00,,,0.00,meteohub,2013-05-26 15:47:00,
2013-05-26 10:52:00,71.4,50.7,29.63,ENE,68,5.0,10.0,48,0.00,,,0.00,meteohub,2013-05-26 15:52:00,
2013-05-26 10:57:00,71.6,49.8,29.63,South,180,6.0,10.0,46,0.00,,,0.00,meteohub,2013-05-26 15:57:00,
2013-05-26 11:02:00,71.4,48.9,29.63,SW,225,2.0,6.0,45,0.00,,,0.00,meteohub,2013-05-26 16:02:00,
2013-05-26 11:07:00,71.6,49.8,29.60,SSW,202,3.0,6.0,46,0.00,,,0.00,meteohub,2013-05-26 16:07:00,
2013-05-26 11:12:00,72.0,50.7,29.60,South,180,5.0,9.0,47,0.00,,,0.00,meteohub,2013-05-26 16:12:00,
2013-05-26 11:17:00,72.1,50.2,29.63,West,270,3.0,9.0,46,0.00,,,0.00,meteohub,2013-05-26 16:17:00,
2013-05-26 11:22:00,72.5,50.0,29.63,East,90,4.0,9.0,45,0.00,,,0.00,meteohub,2013-05-26 16:22:00,
2013-05-26 11:27:00,72.1,49.1,29.63,SE,135,3.0,6.0,44,0.00,,,0.00,meteohub,2013-05-26 16:27:00,
2013-05-26 11:32:00,71.8,49.3,29.63,SSW,202,3.0,6.0,45,0.00,,,0.00,meteohub,2013-05-26 16:32:00,
2013-05-26 11:37:00,72.1,50.9,29.63,East,90,3.0,6.0,47,0.00,,,0.00,meteohub,2013-05-26 16:37:00,
2013-05-26 11:42:00,72.0,48.9,29.63,South,180,6.0,6.0,44,0.00,,,0.00,meteohub,2013-05-26 16:42:00,
2013-05-26 11:47:00,72.7,50.7,29.63,NNW,338,3.0,9.0,46,0.00,,,0.00,meteohub,2013-05-26 16:47:00,
2013-05-26 11:52:00,73.0,52.2,29.63,South,180,3.0,9.0,48,0.00,,,0.00,meteohub,2013-05-26 16:52:00,
2013-05-26 11:57:00,72.9,50.9,29.63,South,180,6.0,7.0,46,0.00,,,0.00,meteohub,2013-05-26 16:57:00,
2013-05-26 12:02:00,72.9,51.4,29.63,NNE,22,3.0,7.0,47,0.00,,,0.00,meteohub,2013-05-26 17:02:00,
2013-05-26 12:07:00,72.7,50.2,29.63,ESE,112,11.0,11.0,45,0.00,,,0.00,meteohub,2013-05-26 17:07:00,
2013-05-26 12:12:00,72.9,50.9,29.63,SSW,202,6.0,11.0,46,0.00,,,0.00,meteohub,2013-05-26 17:12:00,
2013-05-26 12:17:00,73.4,50.7,29.63,SW,225,6.0,11.0,45,0.00,,,0.00,meteohub,2013-05-26 17:17:00,
2013-05-26 12:22:00,73.4,51.4,29.66,SSW,202,2.0,11.0,46,0.00,,,0.00,meteohub,2013-05-26 17:22:00,
2013-05-26 12:27:00,73.6,50.9,29.66,ESE,112,2.0,10.0,45,0.00,,,0.00,meteohub,2013-05-26 17:27:00,
2013-05-26 12:32:00,73.9,50.7,29.66,South,180,5.0,10.0,44,0.00,,,0.00,meteohub,2013-05-26 17:32:00,
2013-05-26 12:37:00,74.3,51.6,29.63,SSW,202,9.0,9.0,45,0.00,,,0.00,meteohub,2013-05-26 17:37:00,
2013-05-26 12:42:00,74.5,51.8,29.63,South,180,6.0,11.0,45,0.00,,,0.00,meteohub,2013-05-26 17:42:00,
2013-05-26 12:47:00,74.8,51.4,29.63,SE,135,1.0,11.0,44,0.00,,,0.00,meteohub,2013-05-26 17:47:00,
2013-05-26 12:52:00,75.6,52.2,29.63,South,180,6.0,11.0,44,0.00,,,0.00,meteohub,2013-05-26 17:52:00,
2013-05-26 12:57:00,75.6,51.4,29.63,SW,225,5.0,7.0,43,0.00,,,0.00,meteohub,2013-05-26 17:57:00,
2013-05-26 13:02:00,75.4,50.7,29.63,SSE,158,3.0,7.0,42,0.00,,,0.00,meteohub,2013-05-26 18:02:00,
2013-05-26 13:07:00,75.7,51.6,29.63,SW,225,4.0,6.0,43,0.00,,,0.00,meteohub,2013-05-26 18:07:00,
2013-05-26 13:12:00,75.7,51.1,29.63,East,90,2.0,6.0,42,0.00,,,0.00,meteohub,2013-05-26 18:12:00,
2013-05-26 13:17:00,75.6,51.4,29.63,NE,45,2.0,5.0,43,0.00,,,0.00,meteohub,2013-05-26 18:17:00,
2013-05-26 13:22:00,75.2,51.3,29.63,NE,45,4.0,5.0,43,0.00,,,0.00,meteohub,2013-05-26 18:22:00,
2013-05-26 13:27:00,75.7,51.1,29.63,SSW,202,2.0,5.0,42,0.00,,,0.00,meteohub,2013-05-26 18:27:00,
2013-05-26 13:32:00,76.3,52.2,29.60,ESE,112,3.0,4.0,43,0.00,,,0.00,meteohub,2013-05-26 18:32:00,
2013-05-26 13:37:00,76.6,52.5,29.60,NNE,22,4.0,6.0,43,0.00,,,0.00,meteohub,2013-05-26 18:37:00,
2013-05-26 13:42:00,76.5,51.6,29.60,South,180,5.0,6.0,42,0.00,,,0.00,meteohub,2013-05-26 18:42:00,
2013-05-26 13:47:00,76.5,51.6,29.63,NE,45,3.0,8.0,42,0.00,,,0.00,meteohub,2013-05-26 18:47:00,
2013-05-26 13:52:00,75.9,50.5,29.63,WSW,248,2.0,8.0,41,0.00,,,0.00,meteohub,2013-05-26 18:52:00,
2013-05-26 13:57:00,75.0,50.4,29.63,NNE,22,2.0,8.0,42,0.00,,,0.00,meteohub,2013-05-26 18:57:00,
2013-05-26 14:02:00,74.5,49.8,29.63,SE,135,4.0,7.0,42,0.00,,,0.00,meteohub,2013-05-26 19:02:00,
2013-05-26 14:07:00,74.1,50.2,29.63,NE,45,4.0,6.0,43,0.00,,,0.00,meteohub,2013-05-26 19:07:00,
2013-05-26 14:12:00,73.8,50.5,29.63,ESE,112,2.0,6.0,44,0.00,,,0.00,meteohub,2013-05-26 19:12:00,
2013-05-26 14:17:00,73.8,51.1,29.60,East,90,2.0,6.0,45,0.00,,,0.00,meteohub,2013-05-26 19:17:00,
2013-05-26 14:22:00,74.3,51.6,29.60,ENE,68,2.0,6.0,45,0.00,,,0.00,meteohub,2013-05-26 19:22:00,
2013-05-26 14:27:00,74.3,51.6,29.60,East,90,4.0,4.0,45,0.00,,,0.00,meteohub,2013-05-26 19:27:00,
2013-05-26 14:32:00,73.9,51.3,29.63,ENE,68,7.0,7.0,45,0.00,,,0.00,meteohub,2013-05-26 19:32:00,
2013-05-26 14:37:00,73.9,51.3,29.63,ENE,68,2.0,7.0,45,0.00,,,0.00,meteohub,2013-05-26 19:37:00,
2013-05-26 14:42:00,73.6,50.9,29.63,ESE,112,4.0,7.0,45,0.00,,,0.00,meteohub,2013-05-26 19:42:00,
2013-05-26 14:47:00,73.6,51.6,29.63,South,180,2.0,7.0,46,0.00,,,0.00,meteohub,2013-05-26 19:47:00,
2013-05-26 14:52:00,73.9,51.8,29.60,ENE,68,6.0,7.0,46,0.00,,,0.00,meteohub,2013-05-26 19:52:00,
2013-05-26 14:57:00,73.9,51.8,29.60,NE,45,6.0,8.0,46,0.00,,,0.00,meteohub,2013-05-26 19:57:00,
2013-05-26 15:02:00,73.9,51.8,29.60,East,90,2.0,8.0,46,0.00,,,0.00,meteohub,2013-05-26 20:02:00,
2013-05-26 15:07:00,74.1,52.0,29.60,ESE,112,2.0,8.0,46,0.00,,,0.00,meteohub,2013-05-26 20:07:00,
2013-05-26 15:12:00,74.5,52.9,29.60,SSW,202,2.0,6.0,47,0.00,,,0.00,meteohub,2013-05-26 20:12:00,
2013-05-26 15:17:00,74.8,52.7,29.57,East,90,3.0,4.0,46,0.00,,,0.00,meteohub,2013-05-26 20:17:00,
2013-05-26 15:22:00,75.2,51.8,29.57,NE,45,4.0,5.0,44,0.00,,,0.00,meteohub,2013-05-26 20:22:00,
2013-05-26 15:27:00,75.4,52.5,29.57,East,90,4.0,6.0,45,0.00,,,0.00,meteohub,2013-05-26 20:27:00,
2013-05-26 15:32:00,75.9,53.6,29.57,ENE,68,4.0,6.0,46,0.00,,,0.00,meteohub,2013-05-26 20:32:00,
2013-05-26 15:37:00,76.3,53.4,29.57,NE,45,4.0,6.0,45,0.00,,,0.00,meteohub,2013-05-26 20:37:00,
2013-05-26 15:42:00,75.9,52.5,29.57,East,90,2.0,9.0,44,0.00,,,0.00,meteohub,2013-05-26 20:42:00,
2013-05-26 15:47:00,75.7,52.3,29.57,NE,45,5.0,9.0,44,0.00,,,0.00,meteohub,2013-05-26 20:47:00,
2013-05-26 15:52:00,76.1,53.8,29.57,NE,45,4.0,7.0,46,0.00,,,0.00,meteohub,2013-05-26 20:52:00,
2013-05-26 15:57:00,75.9,53.1,29.57,East,90,4.0,7.0,45,0.00,,,0.00,meteohub,2013-05-26 20:57:00,
2013-05-26 16:02:00,75.6,53.4,29.54,East,90,6.0,7.0,46,0.00,,,0.00,meteohub,2013-05-26 21:02:00,
2013-05-26 16:07:00,75.9,53.6,29.54,South,180,4.0,7.0,46,0.00,,,0.00,meteohub,2013-05-26 21:07:00,
2013-05-26 16:12:00,75.9,53.6,29.54,ENE,68,6.0,7.0,46,0.00,,,0.00,meteohub,2013-05-26 21:12:00,
2013-05-26 16:17:00,75.9,53.6,29.57,ENE,68,3.0,6.0,46,0.00,,,0.00,meteohub,2013-05-26 21:17:00,
2013-05-26 16:22:00,75.7,52.9,29.57,NE,45,5.0,6.0,45,0.00,,,0.00,meteohub,2013-05-26 21:22:00,
2013-05-26 16:27:00,75.7,54.1,29.57,East,90,3.0,6.0,47,0.00,,,0.00,meteohub,2013-05-26 21:27:00,
2013-05-26 16:32:00,75.9,53.6,29.57,East,90,1.0,8.0,46,0.00,,,0.00,meteohub,2013-05-26 21:32:00,
2013-05-26 16:37:00,75.9,53.1,29.57,East,90,4.0,8.0,45,0.00,,,0.00,meteohub,2013-05-26 21:37:00,
2013-05-26 16:42:00,76.1,53.8,29.57,SSE,158,4.0,8.0,46,0.00,,,0.00,meteohub,2013-05-26 21:42:00,
2013-05-26 16:47:00,76.1,53.8,29.57,South,180,2.0,4.0,46,0.00,,,0.00,meteohub,2013-05-26 21:47:00,
2013-05-26 16:52:00,76.3,54.0,29.57,East,90,3.0,5.0,46,0.00,,,0.00,meteohub,2013-05-26 21:52:00,
2013-05-26 16:57:00,76.1,53.8,29.57,SSW,202,1.0,5.0,46,0.00,,,0.00,meteohub,2013-05-26 21:57:00,
2013-05-26 17:02:00,76.3,53.4,29.57,East,90,3.0,6.0,45,0.00,,,0.00,meteohub,2013-05-26 22:02:00,
2013-05-26 17:07:00,75.9,53.1,29.57,East,90,3.0,6.0,45,0.00,,,0.00,meteohub,2013-05-26 22:07:00,
2013-05-26 17:12:00,75.9,53.6,29.57,ENE,68,2.0,6.0,46,0.00,,,0.00,meteohub,2013-05-26 22:12:00,
2013-05-26 17:17:00,75.9,53.6,29.54,NW,315,2.0,6.0,46,0.00,,,0.00,meteohub,2013-05-26 22:17:00,
2013-05-26 17:22:00,75.9,53.6,29.54,South,180,2.0,5.0,46,0.00,,,0.00,meteohub,2013-05-26 22:22:00,
2013-05-26 17:27:00,75.9,53.6,29.54,East,90,3.0,4.0,46,0.00,,,0.00,meteohub,2013-05-26 22:27:00,
2013-05-26 17:32:00,75.9,53.6,29.54,NE,45,1.0,6.0,46,0.00,,,0.00,meteohub,2013-05-26 22:32:00,
2013-05-26 17:37:00,76.1,53.8,29.54,SSW,202,3.0,6.0,46,0.00,,,0.00,meteohub,2013-05-26 22:37:00,
2013-05-26 17:42:00,76.3,54.0,29.54,SE,135,4.0,6.0,46,0.00,,,0.00,meteohub,2013-05-26 22:42:00,
2013-05-26 17:47:00,76.5,54.1,29.54,NNE,22,3.0,6.0,46,0.00,,,0.00,meteohub,2013-05-26 22:47:00,
2013-05-26 17:52:00,76.3,53.4,29.54,SSE,158,2.0,6.0,45,0.00,,,0.00,meteohub,2013-05-26 22:52:00,
2013-05-26 17:57:00,75.9,53.6,29.54,South,180,3.0,6.0,46,0.00,,,0.00,meteohub,2013-05-26 22:57:00,
2013-05-26 18:02:00,75.7,53.4,29.54,North,0,2.0,4.0,46,0.00,,,0.00,meteohub,2013-05-26 23:02:00,
2013-05-26 18:07:00,75.6,53.4,29.54,South,180,0.0,4.0,46,0.00,,,0.00,meteohub,2013-05-26 23:07:00,
2013-05-26 18:12:00,75.6,53.4,29.54,SSE,158,2.0,4.0,46,0.00,,,0.00,meteohub,2013-05-26 23:12:00,
2013-05-26 18:17:00,75.4,53.2,29.54,SSE,158,3.0,3.0,46,0.00,,,0.00,meteohub,2013-05-26 23:17:00,
2013-05-26 18:22:00,75.4,53.8,29.51,NE,45,1.0,4.0,47,0.00,,,0.00,meteohub,2013-05-26 23:22:00,
2013-05-26 18:27:00,75.4,53.8,29.51,South,180,3.0,4.0,47,0.00,,,0.00,meteohub,2013-05-26 23:27:00,
2013-05-26 18:32:00,75.4,53.8,29.51,NNE,22,3.0,4.0,47,0.00,,,0.00,meteohub,2013-05-26 23:32:00,
2013-05-26 18:37:00,75.6,54.0,29.51,East,90,2.0,6.0,47,0.00,,,0.00,meteohub,2013-05-26 23:37:00,
2013-05-26 18:42:00,75.4,53.8,29.51,ENE,68,2.0,6.0,47,0.00,,,0.00,meteohub,2013-05-26 23:42:00,
2013-05-26 18:47:00,75.4,53.8,29.51,SE,135,3.0,3.0,47,0.00,,,0.00,meteohub,2013-05-26 23:47:00,
2013-05-26 18:52:00,75.4,53.8,29.51,ENE,68,3.0,4.0,47,0.00,,,0.00,meteohub,2013-05-26 23:52:00,
2013-05-26 18:57:00,75.2,54.1,29.51,ENE,68,0.0,4.0,48,0.00,,,0.00,meteohub,2013-05-26 23:57:00,
2013-05-26 19:02:00,74.8,53.8,29.51,SSW,202,0.0,4.0,48,0.00,,,0.00,meteohub,2013-05-27 00:02:00,
2013-05-26 19:07:00,74.7,53.6,29.51,SE,135,1.0,3.0,48,0.00,,,0.00,meteohub,2013-05-27 00:07:00,
2013-05-26 19:12:00,74.5,54.1,29.51,South,180,0.0,3.0,49,0.00,,,0.00,meteohub,2013-05-27 00:12:00,
2013-05-26 19:17:00,74.1,53.8,29.51,South,180,0.0,3.0,49,0.00,,,0.00,meteohub,2013-05-27 00:17:00,
2013-05-26 19:22:00,73.9,54.1,29.51,South,180,0.0,2.0,50,0.00,,,0.00,meteohub,2013-05-27 00:22:00,
2013-05-26 19:27:00,73.6,53.8,29.51,South,180,1.0,2.0,50,0.00,,,0.00,meteohub,2013-05-27 00:27:00,
2013-05-26 19:32:00,73.4,54.1,29.51,SSE,158,4.0,4.0,51,0.00,,,0.00,meteohub,2013-05-27 00:32:00,
2013-05-26 19:37:00,73.4,54.1,29.51,South,180,1.0,4.0,51,0.00,,,0.00,meteohub,2013-05-27 00:37:00,
2013-05-26 19:42:00,73.2,54.5,29.51,SSE,158,2.0,4.0,52,0.00,,,0.00,meteohub,2013-05-27 00:42:00,
2013-05-26 19:47:00,73.0,54.3,29.51,SE,135,2.0,4.0,52,0.00,,,0.00,meteohub,2013-05-27 00:47:00,
2013-05-26 19:52:00,72.9,54.1,29.51,SSW,202,0.0,4.0,52,0.00,,,0.00,meteohub,2013-05-27 00:52:00,
2013-05-26 19:57:00,72.7,54.5,29.51,SSE,158,2.0,4.0,53,0.00,,,0.00,meteohub,2013-05-27 00:57:00,
2013-05-26 20:02:00,72.5,54.3,29.51,East,90,1.0,4.0,53,0.00,,,0.00,meteohub,2013-05-27 01:02:00,
2013-05-26 20:07:00,72.3,54.3,29.51,WNW,292,0.0,3.0,53,0.00,,,0.00,meteohub,2013-05-27 01:07:00,
2013-05-26 20:12:00,72.3,54.3,29.51,East,90,2.0,4.0,53,0.00,,,0.00,meteohub,2013-05-27 01:12:00,
2013-05-26 20:17:00,72.1,54.5,29.48,South,180,3.0,4.0,54,0.00,,,0.00,meteohub,2013-05-27 01:17:00,
2013-05-26 20:22:00,72.1,54.5,29.48,SSE,158,3.0,4.0,54,0.00,,,0.00,meteohub,2013-05-27 01:22:00,
2013-05-26 20:27:00,72.0,54.5,29.48,East,90,1.0,4.0,54,0.00,,,0.00,meteohub,2013-05-27 01:27:00,
2013-05-26 20:32:00,72.0,54.9,29.51,South,180,2.0,4.0,55,0.00,,,0.00,meteohub,2013-05-27 01:32:00,
2013-05-26 20:37:00,71.8,54.3,29.51,WNW,292,0.0,3.0,54,0.00,,,0.00,meteohub,2013-05-27 01:37:00,
2013-05-26 20:42:00,71.6,54.5,29.51,SSE,158,1.0,3.0,55,0.00,,,0.00,meteohub,2013-05-27 01:42:00,
2013-05-26 20:47:00,71.6,54.5,29.51,South,180,0.0,5.0,55,0.00,,,0.00,meteohub,2013-05-27 01:47:00,
2013-05-26 20:52:00,71.6,54.5,29.51,South,180,3.0,5.0,55,0.00,,,0.00,meteohub,2013-05-27 01:52:00,
2013-05-26 20:57:00,71.4,54.5,29.51,ENE,68,1.0,5.0,55,0.00,,,0.00,meteohub,2013-05-27 01:57:00,
2013-05-26 21:02:00,71.4,54.5,29.51,NE,45,0.0,3.0,55,0.00,,,0.00,meteohub,2013-05-27 02:02:00,
2013-05-26 21:07:00,71.4,54.5,29.51,ESE,112,0.0,3.0,55,0.00,,,0.00,meteohub,2013-05-27 02:07:00,
2013-05-26 21:12:00,71.2,54.3,29.51,SSE,158,2.0,2.0,55,0.00,,,0.00,meteohub,2013-05-27 02:12:00,
2013-05-26 21:17:00,71.2,54.7,29.51,SE,135,1.0,2.0,56,0.00,,,0.00,meteohub,2013-05-27 02:17:00,
2013-05-26 21:22:00,71.2,54.7,29.51,South,180,0.0,2.0,56,0.00,,,0.00,meteohub,2013-05-27 02:22:00,
2013-05-26 21:27:00,71.1,54.5,29.51,ESE,112,1.0,2.0,56,0.00,,,0.00,meteohub,2013-05-27 02:27:00,
2013-05-26 21:32:00,70.9,54.5,29.51,WSW,248,0.0,3.0,56,0.00,,,0.00,meteohub,2013-05-27 02:32:00,
2013-05-26 21:37:00,70.9,54.5,29.51,South,180,1.0,3.0,56,0.00,,,0.00,meteohub,2013-05-27 02:37:00,
2013-05-26 21:42:00,70.7,54.7,29.51,South,180,1.0,3.0,57,0.00,,,0.00,meteohub,2013-05-27 02:42:00,
2013-05-26 21:47:00,70.7,54.7,29.51,SSW,202,0.0,3.0,57,0.00,,,0.00,meteohub,2013-05-27 02:47:00,
2013-05-26 21:52:00,70.5,54.5,29.51,East,90,2.0,3.0,57,0.00,,,0.00,meteohub,2013-05-27 02:52:00,
2013-05-26 21:57:00,70.5,54.5,29.51,NE,45,0.0,3.0,57,0.00,,,0.00,meteohub,2013-05-27 02:57:00,
2013-05-26 22:02:00,70.5,54.5,29.51,East,90,1.0,3.0,57,0.00,,,0.00,meteohub,2013-05-27 03:02:00,
2013-05-26 22:07:00,70.3,54.9,29.51,NE,45,0.0,3.0,58,0.00,,,0.00,meteohub,2013-05-27 03:07:00,
2013-05-26 22:12:00,70.3,54.9,29.51,SSE,158,1.0,3.0,58,0.00,,,0.00,meteohub,2013-05-27 03:12:00,
2013-05-26 22:17:00,70.2,55.6,29.51,South,180,2.0,3.0,60,0.00,,,0.00,meteohub,2013-05-27 03:17:00,
2013-05-26 22:22:00,70.2,55.2,29.51,ENE,68,0.0,4.0,59,0.00,,,0.00,meteohub,2013-05-27 03:22:00,
2013-05-26 22:27:00,70.0,55.0,29.51,South,180,1.0,4.0,59,0.00,,,0.00,meteohub,2013-05-27 03:27:00,
2013-05-26 22:32:00,70.0,55.4,29.51,South,180,0.0,4.0,60,0.00,,,0.00,meteohub,2013-05-27 03:32:00,
2013-05-26 22:37:00,69.8,54.9,29.51,South,180,0.0,3.0,59,0.00,,,0.00,meteohub,2013-05-27 03:37:00,
2013-05-26 22:42:00,69.8,55.2,29.51,South,180,0.0,3.0,60,0.00,,,0.00,meteohub,2013-05-27 03:42:00,
2013-05-26 22:47:00,69.6,55.0,29.51,SSE,158,0.0,3.0,60,0.00,,,0.00,meteohub,2013-05-27 03:47:00,
2013-05-26 22:52:00,69.6,55.6,29.51,West,270,1.0,3.0,61,0.00,,,0.00,meteohub,2013-05-27 03:52:00,
2013-05-26 22:57:00,69.4,55.4,29.51,South,180,1.0,3.0,61,0.00,,,0.00,meteohub,2013-05-27 03:57:00,
2013-05-26 23:01:00,69.3,55.2,29.51,ESE,112,0.0,5.0,61,0.00,,,0.00,meteohub,2013-05-27 04:01:00,
2013-05-26 23:02:00,69.3,55.2,29.51,South,180,1.0,5.0,61,0.00,,,0.00,meteohub,2013-05-27 04:02:00,
2013-05-26 23:06:00,69.1,55.0,29.51,South,180,1.0,5.0,61,0.00,,,0.00,meteohub,2013-05-27 04:06:00,
2013-05-26 23:12:00,69.1,55.0,29.51,SSW,202,0.0,5.0,61,0.00,,,0.00,meteohub,2013-05-27 04:12:00,
2013-05-26 23:17:00,68.9,55.4,29.51,SE,135,1.0,2.0,62,0.00,,,0.00,meteohub,2013-05-27 04:17:00,
2013-05-26 23:22:00,68.9,55.4,29.51,SW,225,0.0,3.0,62,0.00,,,0.00,meteohub,2013-05-27 04:22:00,
2013-05-26 23:27:00,68.7,55.2,29.51,ESE,112,1.0,3.0,62,0.00,,,0.00,meteohub,2013-05-27 04:27:00,
2013-05-26 23:32:00,68.7,55.2,29.48,ESE,112,2.0,3.0,62,0.00,,,0.00,meteohub,2013-05-27 04:32:00,
2013-05-26 23:37:00,68.7,55.2,29.48,ENE,68,2.0,2.0,62,0.00,,,0.00,meteohub,2013-05-27 04:37:00,
2013-05-26 23:42:00,68.7,55.2,29.48,East,90,3.0,4.0,62,0.00,,,0.00,meteohub,2013-05-27 04:42:00,
2013-05-26 23:47:00,68.5,55.4,29.48,East,90,0.0,4.0,63,0.00,,,0.00,meteohub,2013-05-27 04:47:00,
2013-05-26 23:52:00,68.4,55.2,29.51,SE,135,0.0,4.0,63,0.00,,,0.00,meteohub,2013-05-27 04:52:00,
2013-05-26 23:57:00,68.2,55.0,29.51,SSE,158,0.0,4.0,63,0.00,,,0.00,meteohub,2013-05-27 04:57:00,